Regional Weather Roundup
Issued by NWS

Home | Current Version | Previous Version | Graphics & Text | Print | Product List | Glossary On
Versions: 1 2 3 4 5 6 7 8 9 10 11 12 13 14 15 16 17 18 19 20 21 22 23 24 25 26 27 28 29 30 31 32 33 34 35 36 37 38 39 40 41 42 43 44 45 46 47 48 49 50
000
ASUS43 KTOP 271759
RWRKS

WEATHER ROUNDUP FOR KANSAS
NATIONAL WEATHER SERVICE GOODLAND KS
100 PM CDT FRI MAY 27 2016

NOTE:  "FAIR" INDICATES FEW OR NO CLOUDS BELOW 12,000 FEET WITH NO
SIGNIFICANT WEATHER AND/OR OBSTRUCTIONS TO VISIBILITY.

KSZ001>006-013>018-027>032-041>047-271900-
NORTHWEST KANSAS

CITY           SKY/WX    TMP DP  RH WIND       PRES   REMARKS
GOODLAND       CLOUDY    58  52  80 NE15      29.76R
6HR MIN TEMP:  50; 6HR MAX TEMP:  61;

HAYS           CLOUDY    32 N/A N/A NE13      29.71S WCI  22
HILL CITY      LGT RAIN  60  59  96 E9        29.74R FOG
6HR MIN TEMP:  57; 6HR MAX TEMP:  60; 6HR PCP: TRACE;

RUSSELL        CLOUDY    66  62  87 SE10      29.69F
6HR MIN TEMP:  57; 6HR MAX TEMP:  66;

$$

KSZ061>065-074>080-084>089-271900-
SOUTHWEST KANSAS

CITY           SKY/WX    TMP DP  RH WIND       PRES   REMARKS
DODGE CITY     MOSUNNY   69  56  62 W7G17     29.69F
6HR MIN TEMP:  55; 6HR MAX TEMP:  69; 6HR PCP:  0.01;

ELKHART          N/A     65  40  40 W17         N/A
GARDEN CITY    SUNNY     69  49  48 W8        29.70S
6HR MIN TEMP:  52; 6HR MAX TEMP:  70;

GREAT BEND     CLOUDY    70  57  64 S8        29.68F
LIBERAL        SUNNY     72  45  37 W16G23    29.73F
$$

KSZ066>073-081>083-090>101-271900-
SOUTHEAST KANSAS

CITY           SKY/WX    TMP DP  RH WIND       PRES   REMARKS
CHANUTE        CLOUDY    72  65  78 S7        29.75R
6HR MIN TEMP:  60; 6HR MAX TEMP:  74;

COFFEYVILLE    LGT RAIN  74  68  81 S7        29.73R
6HR MIN TEMP:  63; 6HR MAX TEMP:  74; 6HR PCP: TRACE;

HUTCHINSON     CLOUDY    73  65  75 SE8       29.71S
6HR MIN TEMP:  59; 6HR MAX TEMP:  73;

MEDICINE LODGE   N/A     75  57  53 S16G23    29.69R
NEWTON         CLOUDY    72  63  73 S8        29.75R
PARSONS        CLOUDY    74  67  78 S7        29.75R
6HR MIN TEMP:  62; 6HR MAX TEMP:  75;

WICHITA INTL   CLOUDY    75  66  73 SE13      29.71R
6HR MIN TEMP:  60; 6HR MAX TEMP:  75;

WICHITA JABRA  PTSUNNY   73  66  78 SE12      29.72R
6HR MIN TEMP:  59; 6HR MAX TEMP:  73;

WICHITA MCCONL CLOUDY    72  64  78 SE10      29.72R
WINFIELD       CLOUDY    76  65  68 SE10      29.72R
6HR MIN TEMP:  62; 6HR MAX TEMP:  77;

$$

KSZ007>012-019>026-033>040-048>060-102>105-271900-
NORTHEAST KANSAS

CITY           SKY/WX    TMP DP  RH WIND       PRES   REMARKS
CONCORDIA      PTSUNNY   68  60  75 E7        29.73F
6HR MIN TEMP:  55; 6HR MAX TEMP:  68; 6HR PCP:  0.06;

EMPORIA        CLOUDY    70  63  78 S12       29.73R
6HR MIN TEMP:  59; 6HR MAX TEMP:  71;

LAWRENCE       CLOUDY    74  64  71 S9        29.73F
6HR MIN TEMP:  61; 6HR MAX TEMP:  74;

MANHATTAN      CLOUDY    72  60  66 S7        29.72F
6HR MIN TEMP:  61; 6HR MAX TEMP:  73;

OLATHE IND     MOSUNNY   74  64  71 S10       29.74F
6HR MIN TEMP:  61; 6HR MAX TEMP:  74;

OLATHE EXE     MOSUNNY   74  64  71 S8        29.74S
6HR MIN TEMP:  60; 6HR MAX TEMP:  74;

SALINA         CLOUDY    75  64  68 SE16      29.71F
6HR MIN TEMP:  59; 6HR MAX TEMP:  75;

TOPEKA BILLARD MOSUNNY   72  61  68 S7        29.73S
6HR MIN TEMP:  62; 6HR MAX TEMP:  72;

TOPEKA FORBES  CLOUDY    73  63  70 S5        29.73S
6HR MIN TEMP:  61; 6HR MAX TEMP:  73;

$$




USA.gov is the U.S. government's official web portal to all federal, state and local government web resources and services.